Regional Weather Roundup
Issued by NWS

Home | Current Version | Previous Version | Graphics & Text | Print | Product List | Glossary On
Versions: 1 2 3 4 5 6 7 8 9 10 11 12 13 14 15 16 17 18 19 20 21 22 23 24 25 26 27 28 29 30 31 32 33 34 35 36 37 38 39 40 41 42 43 44 45 46 47 48 49 50
000
ASUS43 KOAX 280910
RWRNE

WEATHER ROUNDUP FOR NEBRASKA
NATIONAL WEATHER SERVICE OMAHA NE
400 AM CDT TUE APR 28 2015

NOTES: SATELLITE DATA IS BEING USED TO AUGMENT CLOUD COVER ABOVE
       12000 FEET.
       "FAIR" INDICATES FEW OR NO CLOUDS BELOW 12,000 FEET WITH NO
       SIGNIFICANT WEATHER AND/OR OBSTRUCTIONS TO VISIBILITY.

  * THESE STATIONS DO NOT REPORT WEATHER SUCH AS RAIN...SNOW OR FOG.

NEZ001>004-019>022-054>056-281000-
NEBRASKA PANHANDLE

CITY           SKY/WX    TMP DP  RH WIND       PRES   REMARKS
SCOTTSBLUFF    CLOUDY    44  40  85 N7        30.34F
ALLIANCE       CLOUDY    41  39  93 N9        30.34S
CHADRON        CLOUDY    45  42  89 CALM      30.34F
KIMBALL        CLOUDY    41  40  98 N3        30.32S
SIDNEY         CLOUDY    44  41  89 N8        30.33S
$$

NEZ057>060-069>072-079>082-281000-
SOUTHWEST NEBRASKA

CITY           SKY/WX    TMP DP  RH WIND       PRES   REMARKS
NORTH PLATTE   CLEAR     44  40  85 NE15      30.28S
IMPERIAL       CLOUDY    46  39  76 NE10      30.29S
LEXINGTON      CLEAR     46  41  84 N13       30.26R
MCCOOK         PTCLDY    46  39  76 N14       30.26R
OGALLALA       CLOUDY    47  41  80 NE5       30.31S
$$

NEZ005>010-023>029-035>040-094-281000-
NORTH CENTRAL NEBRASKA

CITY           SKY/WX    TMP DP  RH WIND       PRES   REMARKS
VALENTINE      CLEAR     38  36  92 NW3       30.33S
AINSWORTH      PTCLDY    43  41  91 NW9       30.31S
BROKEN BOW     CLEAR     45  41  86 N15       30.26S
O`NEILL        CLEAR     44  42  93 NW8       30.27R
ORD            CLEAR     45  40  82 NW13      30.25R
THEDFORD       PTCLDY    44  41  89 N8        30.32S
$$

NEZ041-046>049-061>064-073>077-083>087-281000-
SOUTH CENTRAL NEBRASKA

CITY           SKY/WX    TMP DP  RH WIND       PRES   REMARKS
GRAND ISLAND   CLEAR     45  38  76 N12       30.23S
AURORA         CLEAR     42  34  73 NW10      30.22R
HASTINGS       PTCLDY    43  35  73 N13       30.22R
HEBRON         MOCLDY    41  33  72 CALM      30.20R
HOLDREGE       PTCLDY    44  38  79 N9        30.24R
KEARNEY *      FAIR      45  37  76 N13       30.24S
YORK           CLEAR     39  34  81 N6        30.20S WCI  35
$$

NEZ011>018-030>034-042>045-281000-
NORTHEAST NEBRASKA

CITY           SKY/WX    TMP DP  RH WIND       PRES   REMARKS
NORFOLK        CLEAR     41  33  73 W7        30.22S
ALBION         PTCLDY    42  37  83 NW7       30.24S
BLAIR          CLEAR     50  30  46 N8        30.17S
COLUMBUS *     CLEAR     39  30  70 NW10      30.23R WCI  32
FREMONT        CLEAR     41  35  81 W5        30.19S
TEKAMAH        CLEAR     40  32  73 N7        30.19S
WAYNE          CLEAR     34  28  76 CALM      30.22R
$$

NEZ050>053-065>068-078-088>093-281000-
SOUTHEAST NEBRASKA

CITY           SKY/WX    TMP DP  RH WIND       PRES   REMARKS
LINCOLN        CLEAR     39  35  86 N10       30.19S WCI  32
OMAHA EPPLEY   MOCLDY    42  37  82 NW7       30.17F
BEATRICE       PTCLDY    39  35  83 CALM      30.18R
FALLS CITY     PTCLDY    45  36  70 CALM      30.15S
NEBRASKA CITY  CLEAR     49  29  45 N3        30.17R
PLATTSMOUTH    CLEAR     47  33  58 NW5       30.17S
$$

NEZ044-045-051>053-067-281000-
OMAHA AREA

CITY           SKY/WX    TMP DP  RH WIND       PRES   REMARKS
OMAHA EPPLEY   MOCLDY    42  37  82 NW7       30.17F
BLAIR          CLEAR     50  30  46 N8        30.17S
FREMONT        CLEAR     41  35  81 W5        30.19S
MILLARD        CLEAR     44  38  78 CALM      30.18S
OFFUTT AFB     CLEAR     41  37  85 NW1       30.16S
PLATTSMOUTH    CLEAR     47  33  58 NW5       30.17S
WAHOO          FAIR      42  33  70 NW9       30.19S
$$


USA.gov is the U.S. government's official web portal to all federal, state and local government web resources and services.